Location: Newark
(35.8833°N, 14.5000°E)
Time: 02:07:21
(UTC+00:00)

Vanguard 1 Rocket - Visible Passes

Search period start: 12 November 2019 00:00
Search period end: 22 November 2019 00:00
Orbit: 651 x 4225 km, 34.3° (Epoch: 10 November)

Date Brightness Start Highest point End Pass type
(mag) Time Alt. Az. Time Alt. Az. Time Alt. Az.
12 Nov 8.4 02:58:05 28° SE 02:58:05 28° SE 03:02:25 10° E visible
13 Nov 7.5 04:08:25 23° WSW 04:11:15 61° SSE 04:18:02 10° E visible
14 Nov 8.1 03:01:24 35° SE 03:01:24 35° SE 03:05:36 10° E visible
15 Nov 7.2 04:11:41 26° WSW 04:14:16 70° S 04:20:57 10° E visible
16 Nov 7.9 03:04:38 41° ESE 03:04:38 41° ESE 03:08:40 10° E visible
17 Nov 7.1 04:14:52 28° WSW 04:17:20 76° S 04:23:53 10° E visible
18 Nov 7.8 03:07:48 44° ESE 03:07:48 44° ESE 03:11:42 10° E visible
19 Nov 7.0 04:18:01 28° W 04:20:25 76° S 04:26:48 10° E visible
20 Nov 7.7 03:10:55 46° ESE 03:10:55 46° ESE 03:14:43 10° E visible
21 Nov 7.0 04:21:06 28° W 04:23:31 72° S 04:29:42 10° ESE visible
